SL-14 DEB, 45306

Orbit data source: Space-Track

SL-14 DEB, 45306 is space debris in LEO originally from a launch on Thu, 15 Aug 1991 UTC launched from the Plesetsk Missile And Space Complex (PKMTR). Debris objects in space refer to the collection of defunct objects orbiting the Earth. Examples of debris include non-operational satellites, rocket bodies, and fragments generated from explosions, collisions, or faulty payload assembly.

Loading next visibility...
Identifier
45306, 1991-056AU
Orbit
LEO
Country
Flag of CISCIS
Related business
Manufacturer
Unknown
Mission
Spacecraft
Bus & Motor
Unknown
Mass
Unknown
Launch date (UTC)
1991-08-15 (34 years ago)
Launch vehicle
Unknown
Launch site
Plesetsk Missile And Space Complex (PKMTR)
Object type
Payload
Rocket body
Debris
Shape & HBR
Unknown shape, 0.2 m
Radar Cross Section
Small (<0.1 m²)

Expand to show TLE details & history
Last TLE update: 12 hours ago

TLE from 12 hours ago
0 SL-14 DEB
1 45306U 91056AU  26035.45034759  .00004252  00000-0  63177-2 0  9991
2 45306  82.6104 185.6572 0135298 201.9887 157.5416 13.49814164292315
Epoch: 2026-02-04T10:48Z
TLE epoch observation values (Epoch: 2026-02-04T10:48:30.031Z)
Latitude
-0.00009°
Longitude
-111.08469°
Altitude
1,169.177 km
Speed
7.223 km/s
True Right ascension
12h 22m 37s
True Declination
0° 00' 00"
Sunlit
Object was in full shadow at epoch
Visualization orbit readout
Latitude
Unknown
Longitude
Unknown
Altitude
Unknown
Speed
Unknown
Apparent Right ascension
Unknown
Apparent Declination
Unknown
Sunlit
N/A
Visualization observer readout
Local Sidereal Time
00:45:04
Azimuth
Unknown
Elevation
Unknown
Doppler factor
Unknown
Orbital elements
Apogee altitude
1,170.912 km
Perigee altitude
969.365 km
Semi-major axis
7,448.275 km
Eccentricity
0.01353
Inclination
82.6104°
RAAN
185.6572°
Arg. of periapsis
201.9887°
True anomaly
158.12474°
Mean anomaly
157.5416°
Eccentric anomaly
157.83408°
Mean motion
3.37644 °/min
Orbital period
106.62 mins
BSTAR
0.0063177
Loading maneuver chart data...
Computing Atmospheric mass density...
Loading historical data...
Loading historical data...
Loading historical data...
Loading historical data...
Loading historical data...
Loading historical data...
Loading historical data...

Documentation

Showing up to 5 results
|